FW9830 Weather Reports


Display with metric or nautical units.
time (UTC)temp
F
wind
direction
speed
MPH
gust
MPH
rain 1hr
in
rain 24hr
in
rain mn
in
humidity
%
barometer
mb
20260905095804 69 58 5.0 6.0 0.00 0.00 0.00 96 1015.4
20260905095259 69 98 5.0 9.0 0.00 0.00 0.00 96 1015.5
20260905094754 69 32 0.0 8.0 0.00 0.00 0.00 96 1015.4
20260905094249 69 84 3.0 7.0 0.00 0.00 0.00 96 1015.4
20260905093748 70 0 1.0 10.0 0.00 0.00 0.00 96 1015.5
20260905093244 70 106 4.0 8.0 0.00 0.00 0.00 96 1015.3
20260905092740 70 43 6.0 10.0 0.00 0.00 0.00 96 1015.1
20260905092235 70 51 6.0 6.0 0.00 0.00 0.00 96 1015.1
20260905091735 70 79 4.0 9.0 0.00 0.00 0.00 96 1015.3
20260905091230 69 38 5.0 9.0 0.00 0.00 0.00 96 1015.4
20260905090728 70 15 3.0 6.0 0.00 0.00 0.00 96 1015.4
20260905090225 70 59 2.0 6.0 0.00 0.00 0.00 96 1015.3
20260905085723 70 45 2.0 5.0 0.00 0.00 0.00 96 1015.5
20260905085219 69 85 6.0 6.0 0.00 0.00 0.00 96 1015.3
20260905084719 70 85 2.0 5.0 0.00 0.00 0.00 96 1015.4
20260905084218 70 48 2.0 5.0 0.00 0.00 0.00 96 1015.5
20260905083714 70 56 0.0 4.0 0.00 0.00 0.00 96 1015.3
20260905083210 70 45 3.0 5.0 0.00 0.00 0.00 96 1015.2
20260905082705 70 12 0.0 5.0 0.00 0.00 0.00 96 1015.2
20260905082200 70 70 2.0 4.0 0.00 0.00 0.00 96 1015.1
20260905081655 70 105 0.0 4.0 0.00 0.00 0.00 96 1015.2
20260905081150 70 33 2.0 3.0 0.00 0.00 0.00 96 1015.2
20260905080649 70 99 2.0 2.0 0.00 0.00 0.00 96 1015.2
20260905080149 70 90 2.0 3.0 0.00 0.00 0.00 96 1015.1
20260905075649 71 83 1.0 3.0 0.00 0.00 0.00 96 1015.0
20260905075148 70 90 0.0 3.0 0.00 0.00 0.00 96 1015.0
20260905074647 70 67 2.0 3.0 0.00 0.00 0.00 96 1015.2
20260905074143 70 83 1.0 2.0 0.00 0.00 0.00 96 1015.1
20260905073638 70 79 0.0 3.0 0.00 0.00 0.00 96 1015.1
20260905073134 70 75 2.0 3.0 0.00 0.00 0.00 96 1014.9
20260905072633 70 96 3.0 5.0 0.00 0.00 0.00 96 1015.0
20260905072128 70 86 3.0 5.0 0.00 0.00 0.00 96 1015.1
20260905071625 71 90 4.0 5.0 0.00 0.00 0.00 96 1015.1
20260905071120 71 96 3.0 3.0 0.00 0.00 0.00 96 1015.1
20260905070616 71 85 2.0 4.0 0.00 0.00 0.00 96 1015.3
20260905070112 71 106 0.0 1.0 0.00 0.00 0.00 96 1015.4
20260905065609 71 99 0.0 2.0 0.00 0.00 0.00 96 1015.3
20260905065104 71 60 1.0 3.0 0.00 0.00 0.00 96 1015.0
20260905064559 71 85 2.0 3.0 0.00 0.00 0.00 96 1015.0
20260905064055 71 97 3.0 3.0 0.00 0.00 0.00 96 1015.2
20260905063553 71 74 0.0 1.0 0.00 0.00 0.00 96 1015.1
20260905063050 71 90 1.0 2.0 0.00 0.00 0.00 95 1015.1
20260905062545 71 77 0.0 3.0 0.00 0.00 0.00 96 1015.3
20260905062044 71 90 0.0 1.0 0.00 0.00 0.00 96 1015.4
20260905061540 71 90 2.0 2.0 0.00 0.00 0.00 95 1015.2
20260905061039 71 75 2.0 3.0 0.00 0.00 0.00 95 1015.3
20260905060535 71 90 0.0 2.0 0.00 0.00 0.00 95 1015.4
20260905060031 71 93 3.0 3.0 0.00 0.00 0.00 95 1015.3
20260905055529 71 90 5.0 5.0 0.00 0.00 0.00 95 1015.1
20260905055024 71 86 5.0 7.0 0.00 0.00 0.00 95 1015.4
20260905054520 71 68 3.0 5.0 0.00 0.00 0.00 95 1015.2
20260905054015 71 90 1.0 5.0 0.00 0.00 0.00 95 1015.2
20260905053509 71 115 2.0 6.0 0.00 0.00 0.00 95 1014.9
20260905053006 71 90 5.0 8.0 0.00 0.00 0.00 95 1015.2
20260905052504 71 37 5.0 8.0 0.00 0.00 0.00 95 1015.2
20260905052004 71 72 3.0 5.0 0.00 0.00 0.00 95 1015.2
20260905051500 71 90 4.0 7.0 0.00 0.00 0.00 95 1015.1
20260905050957 71 85 4.0 6.0 0.00 0.00 0.00 95 1015.0
20260905050452 71 88 4.0 7.0 0.00 0.00 0.00 95 1015.2
20260905045948 72 85 4.0 6.0 0.00 3.33 3.33 95 1015.1
20260905045444 71 95 4.0 5.0 0.00 3.33 3.33 95 1015.0
20260905044939 72 88 4.0 7.0 0.00 3.33 3.33 95 1015.1
20260905044438 72 90 2.0 4.0 0.00 3.33 3.33 95 1015.0
20260905043933 72 77 4.0 5.0 0.00 3.33 3.33 95 1015.0
20260905043432 72 90 5.0 6.0 0.00 3.33 3.33 95 1015.3
20260905042927 72 75 3.0 4.0 0.00 3.33 3.33 95 1015.1
20260905042421 72 60 0.0 3.0 0.00 3.33 3.33 95 1015.2
20260905041916 72 98 2.0 5.0 0.00 3.33 3.33 95 1015.2
20260905041413 72 90 6.0 7.0 0.00 3.33 3.33 95 1015.1
20260905040913 72 95 4.0 7.0 0.00 3.33 3.33 95 1015.0
20260905040407 72 87 4.0 5.0 0.00 3.33 3.33 95 1015.1
20260905035906 72 85 3.0 5.0 0.00 3.33 3.33 95 1015.0
20260905035401 72 70 2.0 5.0 0.00 3.33 3.33 95 1015.2
20260905034858 72 104 3.0 5.0 0.00 3.33 3.33 95 1015.2
20260905034353 72 26 2.0 3.0 0.00 3.33 3.33 95 1015.2
20260905033851 72 63 1.0 5.0 0.00 3.33 3.33 95 1015.0
20260905033348 72 0 0.0 5.0 0.00 3.33 3.33 95 1014.9
20260905032846 72 90 7.0 7.0 0.00 3.33 3.33 95 1014.9
20260905032342 72 87 10.0 10.0 0.00 3.33 3.33 95 1014.5
20260905031837 72 78 7.0 9.0 0.00 3.33 3.33 95 1014.6
20260905031333 72 98 5.0 7.0 0.00 3.33 3.33 95 1014.6
20260905030828 72 70 2.0 7.0 0.00 3.33 3.33 95 1014.7
20260905030324 72 93 4.0 5.0 0.00 3.33 3.33 94 1014.9
20260905025823 72 75 0.0 3.0 0.00 3.33 3.33 94 1015.1
20260905025318 72 78 0.0 4.0 0.00 3.33 3.33 94 1015.0
20260905024815 72 66 2.0 5.0 0.00 3.33 3.33 94 1015.1
20260905024310 72 81 2.0 3.0 0.00 3.33 3.33 94 1015.0
20260905023805 72 90 2.0 4.0 0.00 3.33 3.33 94 1014.8
20260905023300 72 87 3.0 3.0 0.00 3.33 3.33 94 1014.9
20260905022759 73 92 5.0 5.0 0.00 3.33 3.33 94 1014.7
20260905022254 73 90 0.0 2.0 0.00 3.33 3.33 94 1015.0
20260905021749 73 106 0.0 3.0 0.00 3.33 3.33 94 1014.7
20260905021244 73 93 3.0 5.0 0.00 3.33 3.33 94 1014.7
20260905020744 72 90 2.0 2.0 0.00 3.33 3.33 94 1014.9
20260905020239 72 151 2.0 4.0 0.00 3.33 3.33 94 1014.7
20260905015738 72 113 3.0 5.0 0.00 3.33 3.33 93 1014.5
20260905015232 73 98 3.0 4.0 0.00 3.33 3.33 94 1014.6
20260905014731 72 117 3.0 5.0 0.00 3.33 3.33 93 1014.6
20260905014227 73 106 4.0 5.0 0.00 3.33 3.33 93 1014.4
20260905013723 73 71 3.0 4.0 0.00 3.33 3.33 93 1014.3
20260905013219 73 128 2.0 4.0 0.00 3.33 3.33 93 1014.6
20260905012714 73 100 2.0 3.0 0.00 3.33 3.33 93 1014.6
20260905012209 73 134 6.0 8.0 0.00 3.33 3.33 93 1014.5
20260905011700 73 135 6.0 9.0 0.00 3.33 3.33 93 1014.3
20260905011156 73 127 3.0 10.0 0.00 3.33 3.33 93 1013.9
20260905010655 73 135 5.0 6.0 0.00 3.33 3.33 93 1014.1
20260905010151 73 132 8.0 13.0 0.00 3.33 3.33 92 1013.8
20260905005648 73 134 5.0 6.0 0.00 3.33 3.33 92 1014.1
20260905005143 73 115 4.0 6.0 0.00 3.33 3.33 92 1014.0
20260905004637 73 132 0.0 3.0 0.00 3.33 3.33 92 1014.1
20260905004132 73 124 3.0 5.0 0.00 3.33 3.33 92 1013.9
20260905003628 73 101 3.0 8.0 0.00 3.33 3.33 91 1014.0
20260905003124 74 129 5.0 8.0 0.00 3.33 3.33 92 1014.4
20260905002619 73 143 6.0 8.0 0.00 3.33 3.33 92 1014.4
20260905002114 73 116 3.0 4.0 0.00 3.33 3.33 92 1014.5
20260905001609 74 117 1.0 5.0 0.00 3.33 3.33 91 1014.4
20260905001109 74 113 0.0 5.0 0.00 3.33 3.33 91 1014.1
20260905000604 74 119 3.0 6.0 0.00 3.33 3.33 91 1014.1
20260905000100 74 105 2.0 5.0 0.00 3.33 3.33 90 1014.0
20260904235600 74 115 4.0 5.0 0.00 3.33 3.33 90 1013.8
20260904235059 74 117 3.0 7.0 0.00 3.33 3.33 90 1013.8
20260904234554 74 113 5.0 9.0 0.00 3.33 3.33 90 1013.7
20260904234050 75 104 3.0 7.0 0.00 3.33 3.33 90 1013.9
20260904233545 75 120 3.0 5.0 0.00 3.33 3.33 90 1014.0
20260904233041 75 110 4.0 7.0 0.00 3.33 3.33 90 1013.7
20260904232538 76 120 5.0 9.0 0.00 3.33 3.33 90 1013.7
20260904232034 76 125 4.0 6.0 0.00 3.33 3.33 90 1013.4
20260904231529 77 94 5.0 9.0 0.00 3.33 3.33 90 1013.8
20260904231024 77 94 7.0 12.0 0.00 3.33 3.33 89 1013.6
20260904230523 78 86 7.0 20.0 0.00 3.33 3.33 86 1013.3
20260904230019 81 201 0.0 2.0 0.00 3.33 3.33 84 1013.5
20260904225517 81 205 3.0 4.0 0.00 3.33 3.33 84 1013.1
20260904225016 81 194 5.0 5.0 0.00 3.33 3.33 83 1013.0
20260904224511 81 194 3.0 4.0 0.00 3.33 3.33 83 1013.3
20260904224006 81 196 3.0 3.0 0.00 3.33 3.33 83 1013.0
20260904223505 82 220 2.0 4.0 0.00 3.33 3.33 83 1012.8
20260904223001 82 180 2.0 3.0 0.00 3.33 3.33 81 1012.8
20260904222455 82 180 3.0 5.0 0.00 3.33 3.33 81 1012.9
20260904221950 82 168 2.0 3.0 0.00 3.33 3.33 83 1012.9
20260904221445 81 193 3.0 5.0 0.00 3.33 3.33 84 1013.1
20260904220940 81 180 3.0 5.0 0.00 3.33 3.33 81 1013.1
20260904220440 82 167 3.0 5.0 0.00 3.33 3.33 82 1012.8
20260904215935 82 187 1.0 4.0 0.00 3.33 3.33 81 1012.8
20260904215430 82 195 5.0 5.0 0.00 3.33 3.33 79 1012.8
20260904214926 82 180 3.0 7.0 0.00 3.33 3.33 79 1013.0
20260904214421 82 200 5.0 6.0 0.00 3.33 3.33 79 1013.0
20260904213921 83 196 4.0 7.0 0.00 3.33 3.33 80 1012.9
20260904213415 82 235 5.0 7.0 0.00 3.33 3.33 79 1012.8
20260904212911 82 229 4.0 6.0 0.00 3.33 3.33 81 1013.0
20260904212410 82 240 5.0 7.0 0.00 3.33 3.33 80 1013.1
20260904211906 82 221 5.0 7.0 0.00 3.33 3.33 81 1012.7
20260904211401 82 233 3.0 5.0 0.00 3.33 3.33 80 1012.8
20260904210856 82 209 1.0 5.0 0.00 3.33 3.33 79 1012.9
20260904210355 82 223 5.0 6.0 0.00 3.33 3.33 80 1012.7
20260904205852 82 192 5.0 5.0 0.00 3.33 3.33 79 1012.7
20260904205347 82 213 3.0 6.0 0.00 3.33 3.33 80 1012.7
20260904204844 82 219 4.0 6.0 0.00 3.33 3.33 80 1012.3
20260904204339 82 233 6.0 7.0 0.00 3.33 3.33 79 1012.8
20260904203836 82 182 4.0 7.0 0.00 3.33 3.33 80 1012.7
20260904203332 83 212 3.0 5.0 0.00 3.33 3.33 79 1012.5
20260904202827 82 215 4.0 6.0 0.00 3.33 3.33 79 1012.6
20260904202323 82 217 4.0 7.0 0.00 3.33 3.33 79 1012.5
20260904201819 82 334 3.0 5.0 0.00 3.33 3.33 78 1012.7
20260904201319 82 222 3.0 6.0 0.00 3.33 3.33 79 1012.8
20260904200814 82 220 6.0 8.0 0.00 3.33 3.33 79 1012.6
20260904200307 82 229 5.0 10.0 0.00 3.33 3.33 81 1012.9
20260904195808 82 241 6.0 6.0 0.00 3.33 3.33 79 1013.0
20260904195306 81 243 8.0 9.0 0.00 3.33 3.33 81 1013.2
20260904194801 81 252 6.0 9.0 0.00 3.33 3.33 81 1013.1
20260904194300 81 304 4.0 10.0 0.00 3.33 3.33 79 1013.4
20260904193755 81 297 4.0 7.0 0.00 3.33 3.33 79 1013.4
20260904193251 81 264 7.0 9.0 0.00 3.33 3.33 80 1013.5
20260904192746 81 233 9.0 9.0 0.00 3.33 3.33 83 1013.4
20260904192241 80 228 7.0 9.0 0.00 3.33 3.33 82 1013.5
20260904191738 80 262 6.0 8.0 0.00 3.33 3.33 82 1013.5
20260904191234 80 300 3.0 10.0 0.00 3.33 3.33 83 1013.5
20260904190730 80 255 5.0 11.0 0.00 3.33 3.33 83 1013.5
20260904190226 80 267 0.0 11.0 0.00 3.33 3.33 83 1013.4
20260904185723 80 324 5.0 9.0 0.00 3.33 3.33 84 1013.4
20260904185222 80 247 4.0 10.0 0.00 3.33 3.33 84 1013.5
20260904184721 79 236 6.0 11.0 0.00 3.33 3.33 85 1013.5
20260904184217 79 262 1.0 8.0 0.00 3.33 3.33 85 1013.5
20260904183712 79 293 3.0 11.0 0.00 3.33 3.33 85 1013.8
20260904183207 78 220 3.0 9.0 0.00 3.33 3.33 86 1013.5
20260904182702 78 242 7.0 9.0 0.00 3.33 3.33 87 1013.6
20260904182157 78 234 5.0 5.0 0.00 3.33 3.33 87 1013.6
20260904181653 77 238 6.0 9.0 0.00 3.33 3.33 88 1013.6
20260904181152 77 252 10.0 10.0 0.00 3.33 3.33 87 1013.6
20260904180648 76 242 7.0 10.0 0.00 3.33 3.33 88 1013.6
20260904180143 76 248 7.0 12.0 0.00 3.33 3.33 88 1013.4
20260904175642 76 243 6.0 12.0 0.00 3.33 3.33 88 1013.5
20260904175141 76 270 10.0 11.0 0.00 3.33 3.33 89 1013.6
20260904174635 75 242 6.0 12.0 0.00 3.33 3.33 88 1013.6
20260904174132 76 324 8.0 9.0 0.00 3.33 3.33 89 1013.6
20260904173627 75 244 8.0 14.0 0.00 3.33 3.33 88 1013.8
20260904173117 75 251 11.0 15.0 0.00 3.33 3.33 88 1013.9
20260904172613 76 317 5.0 10.0 0.00 3.33 3.33 89 1013.9
20260904172112 77 258 3.0 13.0 0.00 3.33 3.33 88 1013.9
20260904171607 76 270 3.0 12.0 0.00 3.33 3.33 89 1014.1
20260904171103 76 255 5.0 10.0 0.00 3.33 3.33 89 1013.8
20260904170558 76 257 6.0 10.0 0.00 3.33 3.33 89 1013.8
20260904170055 76 256 7.0 11.0 0.00 3.33 3.33 89 1013.8
20260904165553 76 336 5.0 9.0 0.00 3.33 3.33 89 1013.8
20260904165052 76 249 7.0 9.0 0.00 3.33 3.33 88 1013.7
20260904164547 76 228 8.0 10.0 0.00 3.33 3.33 89 1013.7
20260904164043 76 248 3.0 9.0 0.00 3.33 3.33 89 1013.7
20260904163543 75 202 8.0 12.0 0.00 3.33 3.33 89 1013.5
20260904163038 75 238 9.0 11.0 0.00 3.33 3.33 89 1013.6
20260904162533 75 231 5.0 9.0 0.00 3.33 3.33 90 1013.5
20260904162028 74 216 7.0 11.0 0.00 3.33 3.33 91 1013.7
20260904161523 73 232 5.0 6.0 0.00 3.33 3.33 91 1013.5
20260904161018 73 203 5.0 6.0 0.00 3.33 3.33 92 1013.3
20260904160513 72 217 5.0 8.0 0.00 3.33 3.33 92 1013.4
20260904160010 72 212 6.0 11.0 0.00 3.33 3.33 92 1013.8
20260904155509 72 207 5.0 9.0 0.00 3.33 3.33 93 1013.6
20260904155008 72 212 0.0 10.0 0.00 3.33 3.33 93 1013.8
20260904154502 72 218 6.0 7.0 0.00 3.33 3.33 93 1013.5
20260904153957 71 234 11.0 11.0 0.00 3.33 3.33 93 1013.7
20260904153452 71 218 5.0 13.0 0.00 3.33 3.33 93 1013.9
20260904152948 71 203 7.0 10.0 0.00 3.33 3.33 93 1013.8
20260904152444 70 204 10.0 12.0 0.00 3.33 3.33 93 1013.6
20260904151943 70 213 10.0 14.0 0.00 3.33 3.33 93 1013.8
20260904151439 70 225 7.0 8.0 0.00 3.33 3.33 94 1013.8
20260904150933 69 207 7.0 10.0 0.00 3.33 3.33 93 1013.8
20260904150428 69 211 7.0 9.0 0.00 3.33 3.33 94 1013.9
20260904145926 69 218 5.0 11.0 0.00 3.33 3.33 93 1013.9
20260904145423 69 207 8.0 12.0 0.00 3.33 3.33 93 1014.0
20260904144918 69 199 10.0 11.0 0.00 3.33 3.33 93 1014.0
20260904144414 69 219 9.0 11.0 0.00 3.33 3.33 93 1014.0
20260904143909 69 207 9.0 14.0 0.00 3.33 3.33 94 1013.9
20260904143405 68 201 8.0 14.0 0.00 3.33 3.33 94 1013.8
20260904142902 68 185 9.0 14.0 0.00 3.33 3.33 95 1013.9
20260904142358 68 209 7.0 14.0 0.00 3.33 3.33 95 1013.8
20260904141857 67 196 10.0 12.0 0.00 3.33 3.33 96 1014.1
20260904141353 67 208 7.0 12.0 0.00 3.33 3.33 96 1013.9
20260904140849 67 180 7.0 10.0 0.00 3.33 3.33 96 1013.9
20260904140343 67 192 9.0 11.0 0.00 3.33 3.33 96 1013.9
20260904135843 67 199 10.0 13.0 0.00 3.33 3.33 97 1013.9
20260904135337 67 207 12.0 16.0 0.00 3.33 3.33 97 1014.0
20260904134833 67 209 13.0 16.0 0.00 3.33 3.33 97 1014.3
20260904134328 67 221 11.0 14.0 0.00 3.33 3.33 97 1013.7
20260904133828 67 190 6.0 11.0 0.00 3.33 3.33 97 1013.6
20260904133324 67 189 7.0 11.0 0.00 3.33 3.33 97 1013.7
20260904132823 67 202 11.0 15.0 0.00 3.33 3.33 97 1013.8
20260904132319 67 215 12.0 17.0 0.00 3.33 3.33 97 1014.3
20260904131818 67 216 10.0 15.0 0.00 3.33 3.33 97 1014.5
20260904131314 67 213 10.0 17.0 0.00 3.33 3.33 97 1014.4
20260904130814 67 210 6.0 12.0 0.00 3.33 3.33 97 1014.3
20260904130313 67 133 6.0 19.0 0.00 3.33 3.33 97 1014.1
20260904125809 67 135 5.0 22.0 0.00 3.33 3.33 97 1014.4
20260904125306 67 221 14.0 23.0 0.00 3.33 3.33 97 1014.4
20260904124804 67 225 10.0 18.0 0.00 3.33 3.33 97 1015.4
20260904124301 67 208 10.0 19.0 0.00 3.33 3.33 97 1015.0
20260904123755 67 227 10.0 18.0 0.00 3.33 3.33 97 1014.8
20260904123251 67 220 10.0 13.0 0.00 3.33 3.33 97 1014.8
20260904122746 67 160 8.0 14.0 0.00 3.33 3.33 97 1014.1
20260904122245 67 150 7.0 10.0 0.00 3.33 3.33 97 1014.0
20260904121741 67 161 7.0 10.0 0.00 3.33 3.33 97 1014.0
20260904121236 67 154 7.0 10.0 0.02 3.33 3.33 97 1013.8
20260904120733 67 152 5.0 11.0 0.12 3.33 3.33 97 1013.7
20260904120228 67 151 5.0 14.0 0.19 3.32 3.32 97 1013.6
20260904115723 67 151 9.0 13.0 0.14 3.30 3.30 97 1013.6
20260904115218 67 138 9.0 12.0 0.12 3.29 3.29 97 1014.1
20260904114713 67 105 3.0 12.0 0.45 3.28 3.28 97 1014.4
20260904114207 68 135 12.0 17.0 0.71 3.27 3.27 97 1013.5
20260904113702 67 170 11.0 11.0 0.33 3.17 3.17 97 1013.9
20260904113201 67 207 7.0 15.0 0.28 3.14 3.14 97 1014.1
20260904112656 67 152 13.0 15.0 0.26 3.11 3.11 97 1014.1
20260904112152 67 152 12.0 17.0 0.35 3.09 3.09 97 1014.1
20260904111647 67 189 8.0 17.0 0.31 3.07 3.07 97 1014.5
20260904111143 67 192 10.0 18.0 0.02 3.02 3.02 97 1014.9
20260904110638 68 166 9.0 15.0 0.24 3.02 3.02 97 1014.5
20260904110137 68 146 11.0 15.0 0.45 3.01 3.01 97 1014.1
20260904105632 68 154 11.0 15.0 0.24 2.98 2.98 97 1014.5
20260904105127 68 225 7.0 12.0 0.00 2.94 2.94 97 1015.3
20260904104623 68 193 7.0 15.0 0.02 2.94 2.94 97 1014.7
20260904104118 68 151 10.0 15.0 0.02 2.94 2.94 97 1014.6
20260904103614 68 154 10.0 13.0 0.14 2.93 2.93 97 1014.0
20260904103110 68 177 14.0 18.0 0.35 2.93 2.93 97 1013.7
20260904102606 68 144 12.0 21.0 0.31 2.90 2.90 97 1013.6
20260904102101 68 161 12.0 14.0 0.21 2.86 2.86 97 1014.3
20260904101557 68 133 5.0 12.0 0.17 2.84 2.84 97 1014.7
20260904101052 68 160 8.0 10.0 0.33 2.83 2.83 97 1014.8
20260904100549 68 165 2.0 9.0 0.80 2.81 2.81 97 1015.1
20260904100043 68 131 10.0 12.0 0.54 2.76 2.76 97 1014.0